Regional Weather Roundup
Issued by NWS Upton, NY

Current Version | Previous Version | Text Only | Print | Product List | Glossary On
Versions: 1 2 3 4 5 6 7 8 9 10 11 12 13 14 15 16 17 18 19 20 21 22 23 24 25 26 27
000
ASUS41 KOKX 212005
RWROKX

Regional Weather Roundup
National Weather Service New York NY
400 PM EDT SAT APR 21 2018

Note: "FAIR" indicates few or no clouds below 12,000 feet with no
significant weather and/or obstructions to visibility.

NYZ071-072-176-178-NJZ106-104-212100-
New York City Metro Area

CITY           SKY/WX    TMP DP  RH WIND       PRES   REMARKS
Central Park   FAIR      61  21  21 NW8       30.29F
Bronx Bot Gard   N/A     59  19  21 W8        30.27S
Bronx Lehman C   N/A     59  19  21 NW5         N/A
LaGuardia Arpt FAIR      61  21  21 NW16      30.26F
Queens College   N/A     59  21  23 W10G24      N/A
Kennedy Intl   PTSUNNY   60  25  26 W12       30.28F
Breezy Point     N/A     55 N/A N/A SW10        N/A
Brooklyn Coll    N/A     59  23  25 W6          N/A
Staten Island    N/A     59  25  27 W9          N/A
Newark/Liberty PTSUNNY   64  34  32 W12G23    30.27F
Teterboro      FAIR      61  25  25 NW9       30.26F
$$

NYZ177-179-078>081-212100-
Long Island New York

CITY           SKY/WX    TMP DP  RH WIND       PRES   REMARKS
Jones Beach      N/A     54 N/A N/A SW12G20     N/A
Wantagh          N/A     59  23  25 NW12        N/A
Hempstead        N/A     59  25  27 W3        30.29F
Matinecock Pt    N/A     55 N/A N/A NW12        N/A
Farmingdale    FAIR      60  23  24 NW9G18    30.27F
MacArthur/ISP  FAIR      60  22  23 NW12G22   30.26F
Stony Brook      N/A     57  25  28 W8G20       N/A
Shirley        FAIR      60  26  27 VRB7G17   30.27F
Mt Sinai Harb    N/A    N/A N/A N/A W8G15       N/A
Westhampton    FAIR      59  19  21 NW10      30.27F
East Hampton   FAIR      56  23  28 W8G17     30.24F
Southold         N/A     55  30  38 W8          N/A
Montauk          N/A     57  26  30 W8G16     30.25F
$$

NYZ052-065-067-212100-
Hudson Valley

CITY           SKY/WX    TMP DP  RH WIND       PRES   REMARKS
White Plains   FAIR      58  20  22 NW15G24   30.25F
Larchmont Harb   N/A     55 N/A N/A NW10G18     N/A
Croton On Huds   N/A     55 N/A N/A SW6         N/A
Somers           N/A     57  23  26 W8          N/A
Brewster         N/A     59  21  23 NW10        N/A
Newburgh       SUNNY     59  23  25 NW9G20    30.27F
Montgomery     FAIR      59  22  24 NW16      30.25F
Otisville        N/A     57  25  28 NW6         N/A
Warwick          N/A     57  25  28 NW9         N/A
Suffern          N/A     57  23  26 W13         N/A
Poughkeepsie   FAIR      60  19  20 N14       30.25F
Albany         FAIR      59  15  18 NW16G26   30.26F
$$

NJZ001-105-106-008-010-013-015-019>022-104-212100-
New Jersey

CITY           SKY/WX    TMP DP  RH WIND       PRES   REMARKS
Newark/Liberty PTSUNNY   64  34  32 W12G23    30.27F
Teterboro      FAIR      61  25  25 NW9       30.26F
Caldwell       FAIR      60  20  21 NW12G20   30.28F
Somerville     FAIR      61  21  21 NW9G16    30.27F
Linden         FAIR      62  25  24 NW12G21   30.28F
Perth Amboy      N/A     55 N/A N/A W10         N/A
Sussex         FAIR      60  24  25 N12G21    30.28F
Andover          N/A     59  23  25 VRB6      30.28F
Trenton        FAIR      61  27  27 W13       30.30F
Millville      FAIR      58  26  29 W8        30.33F
Atlantic City  FAIR      62  26  25 NW9       30.31F
Wrightstown    FAIR      59  26  28 NW8       30.29F
Toms River     FAIR      60  26  27 W13G20    30.31F
Belmar         FAIR      58  24  27 W13       30.31F
$$

PAZ047>061-062-071-212100-
Eastern Pennsylvania

CITY           SKY/WX    TMP DP  RH WIND       PRES   REMARKS
Philadelphia   PTSUNNY   60  25  26 W12       30.32F
Allentown      FAIR      60  24  25 VRB5      30.30F
Scranton       FAIR      56  23  27 NW8       30.31F
$$

CTZ002-004>006-009-010-012-RIZ004-006-007-MAZ004-011-015-212100-
Southern New England

 In CT

CITY           SKY/WX    TMP DP  RH WIND       PRES   REMARKS
Bradley Intl   FAIR      59  19  21 NW18G32   30.23S
Hartford       FAIR      61  19  19 W14G23    30.22F
Danbury        FAIR      58  21  24 W13G22    30.25F
Wtrbury/Oxford FAIR      56  20  24 W8G17     30.24F
Norwalk Harbor   N/A     55 N/A N/A W16G23      N/A
Bridgeport     FAIR      61  19  19 NW14      30.24F
Meriden        FAIR      59  17  19 NW16G28   30.23F
New Haven      FAIR      56  29  35 SW15G21   30.24F
Chester        FAIR      61  18  18 NW7       30.22F
Groton         FAIR      52  35  52 SW16      30.21F
Willimantic    FAIR      59  21  23 NW14G22   30.22F

 In RI

CITY           SKY/WX    TMP DP  RH WIND       PRES   REMARKS
Providence     FAIR      61  21  21 NW7       30.20F
Block Island   FAIR      51  34  52 SW17      30.24F
Westerly       FAIR      55  29  36 SW12G18   30.23F

In MA

CITY           SKY/WX    TMP DP  RH WIND       PRES   REMARKS
Boston         FAIR      59  20  22 W13       30.18F
Worcester      FAIR      54  22  28 W21G28    30.19F
Westfield      FAIR      59  20  22 N14G25    30.22F
Provincetown   FAIR      51  30  44 S10       30.22F
Nantucket      FAIR      49  34  56 SW12      30.25F
$$

ANZ330-335-338-340-345-350-353-355-212100-
Coastal Marine Observations


STATION/POSITION TIME  SKY/WX   TEMP    WIND        PRES    VSBY  WAVE
                                AIR SEA DIR/SP/G                  HT/PER
                 (UTC)          (F)     (DEG/KT/KT) (MB)    (MI)  (FT/S)
NY Harb Entrance 1950            46 45  200/ 12/ 14 1026.2          1
20 S Fire Island 1950            45 44  220/ 10/ 12 1026.1          1/14
23 SSW Montauk P 1950            45 43  240/ 14/ 14 1025.2          1/ 4
15 E Barnegat Li 1930               45                N/A           1/14
Hudson Canyon    1950            45 45  250/  8/ 10 1026.7          2/ 4
Kings Point      1936            54 45  360/  7/  8 1026.1
Execution Rocks  NOT AVBL
Western LI Sound NOT AVBL
Central LI Sound 1930            47     240/ 12/ 16   N/A           1
Robbins Reef     1948            57     290/ 10/ 15 1025.8
$$


>>>>>>>>>>>>>>>>>>>>>>>>>>>> KEY <<<<<<<<<<<<<<<<<<<<<<<<<<<
>                                                          <
>     SKY/WX - Sky Condition/Present Weather               <
>     TMP    - Temperature in Fahrenheit                   <
>     DP     - Dew Point in Fahrenheit                     <
>     RH     - Relative Humidity in Percent                <
>     WIND   - Direction (from) and Speed in MPH           <
>     PRES   - Mean Sea Level Pressure (inches of Hg)      <
>     WCI    - Wind Chill Index                            <
>     VSB    - Visibility in Miles                         <
>     HX     - Heat Index                                  <
>     TC     - Temperature in Celsius                      <
>     VRB    - Varibale Wind Direction                     <
>                                                          <
>>>>>>>>>>>>>>>>>>>>>>>>>>>> KEY <<<<<<<<<<<<<<<<<<<<<<<<<<<




USA.gov is the U.S. government's official web portal to all federal, state and local government web resources and services.